Location: Newark
(39.0622°N, 106.5590°E)
Time: 20:51:26
(UTC+00:00)

Vanguard 2 Rocket - Pass Details

Date: 30 January 2020
Orbit: 554 x 3327 km, 32.9° (Epoch: 22 February)

Event Time Altitude Azimuth Distance (km) Brightness Sun altitude
Rises 23:48:23 0° 265° (W) 2,880 - -3.3°
Exits shadow 23:48:35 - 264° (W) 2,805 8.9 -3.3°
Reaches altitude 10° 23:50:31 10° 255° (WSW) 2,116 8.3 -2.9°
Maximum altitude 23:54:50 34° 190° (S) 1,398 8.0 -2.1°
Drops below altitude 10° 00:01:18 10° 128° (SE) 3,209 11.4 -1.0°
Sets 00:05:19 0° 121° (ESE) 4,655 13.2 -0.2°
